Weather History for Northolt, United Kingdom

Change the Weather History Date:

Monday, November 18, 2013

  Actual Average Record
Temperature  
Mean Temperature 46 °F -  
Max Temperature 49 °F 46 °F 59 °F (2003)
Min Temperature 42 °F 37 °F 24 °F (2005)
Degree Days  
Heating Degree Days 20    
Moisture  
Dew Point 45 °F    
Average Humidity 91    
Maximum Humidity 100    
Minimum Humidity 77    
Precipitation  
Precipitation 0.00 in - - ()
Sea Level Pressure  
Sea Level Pressure 29.84 in    
Wind  
Wind Speed 4 mph ()    
Max Wind Speed 13 mph    
Max Gust Speed -    
Visibility 4.3 miles    
Events Rain    
Averages and records for this station are not official NWS values.
T = Trace of Precipitation, MM = Missing Value Source: Averaged Metar Reports

Daily Weather History Graph

Daily Weather History Graph

Search for Another Location

Airport:

Trip Planner

Search our weather history database for the weather conditions in past years. The results will help you decide how hot, cold, wet, or windy it might be!

Date:

Astronomy

Nov. 18, 2013 Rise Set
Actual Time 7:25 AM GMT 4:08 PM GMT
Civil Twilight 6:47 AM GMT 4:45 PM GMT
Nautical Twilight 6:06 AM GMT 5:26 PM GMT
Astronomical Twilight 5:26 AM GMT 6:06 PM GMT
Moon 4:57 PM GMT (11/18) 8:01 AM GMT (11/18)
Length of Visible Light 9h 57m
Length of Day
8h 43m
Full, 99% of the Moon is Illuminated
Nov 18
Full
Nov 25
Last Quarter
Dec 3
New
Dec 9
First Quarter
Dec 17
Full

Hourly Weather History & Observations

Time (GMT) Temp. Windchill Dew Point Humidity Pressure Visibility Wind Dir Wind Speed Gust Speed Precip Events Conditions
12:00 AM 47 °F - 46 °F 94% 30.03 in 2 mi NNW 3.5 mph - -   Mostly Cloudy
12:50 AM 46.4 °F - 46.4 °F 100% 29.98 in 1.6 mi NNW 2.3 mph - N/A   Overcast
1:50 AM 46.4 °F 45.2 °F 46.4 °F 100% 29.98 in 0.3 mi NNW 3.5 mph - N/A   Overcast
2:50 AM 46.4 °F - 46.4 °F 100% 29.95 in 0.2 mi NNW 2.3 mph - N/A   Unknown
3:00 AM 47 °F - 46 °F 95% 29.95 in 0 mi NNW 2.3 mph - -  
3:50 AM 46.4 °F 45.2 °F 46.4 °F 100% 29.92 in 0.2 mi NW 3.5 mph - N/A   Unknown
4:50 AM 46.4 °F 45.2 °F 46.4 °F 100% 29.89 in 0.2 mi WNW 3.5 mph - N/A   Unknown
5:50 AM 46.4 °F 45.2 °F 46.4 °F 100% 29.86 in - NW 3.5 mph - N/A   Mostly Cloudy
6:00 AM 46 °F - 46 °F 98% 29.88 in 2 mi NW 3.5 mph - -   Mostly Cloudy
6:50 AM 46.4 °F - 44.6 °F 93% 29.86 in 1.6 mi West 1.2 mph - N/A   Overcast
7:23 AM 46.4 °F - 46.4 °F 100% 29.86 in 3.1 mi WSW 2.3 mph - N/A   Overcast
7:50 AM 46.4 °F 45.2 °F 46.4 °F 100% 29.86 in 1.9 mi West 3.5 mph - N/A   Overcast
8:50 AM 46.4 °F 45.2 °F 46.4 °F 100% 29.86 in 1.7 mi West 3.5 mph - N/A   Overcast
9:00 AM 47 °F - 46 °F 92% 29.87 in 2 mi West 3.5 mph - -   Mist
9:50 AM 46.4 °F 44.3 °F 46.4 °F 100% 29.83 in 1.7 mi WSW 4.6 mph - N/A   Overcast
10:50 AM 48.2 °F - 46.4 °F 93% 29.83 in - West 4.6 mph - N/A   Overcast
11:50 AM 48.2 °F - 44.6 °F 87% 29.80 in 2.5 mi West 5.8 mph - N/A   Haze
12:00 PM 48 °F - 45 °F 87% 29.83 in 2 mi West 5.8 mph - -   Haze
12:10 PM 48.2 °F - 44.6 °F 87% 29.80 in 3.1 mi West 6.9 mph - N/A   Haze
12:50 PM 50.0 °F - 44.6 °F 82% 29.80 in 3.7 mi West 5.8 mph - N/A   Haze
1:50 PM 50.0 °F - 44.6 °F 82% 29.77 in 6.2 mi West 8.1 mph - N/A   Mostly Cloudy
2:50 PM 48.2 °F - 44.6 °F 87% 29.77 in 6.2 mi WNW 9.2 mph - N/A   Overcast
3:00 PM 48 °F - 45 °F 85% 29.78 in 7 mi WNW 9.2 mph - -   Overcast
3:22 PM 48.2 °F - 44.6 °F 87% 29.77 in 6.2 mi West 8.1 mph - N/A   Light Drizzle
3:50 PM 48.2 °F - 44.6 °F 87% 29.77 in 6.2 mi West 9.2 mph - N/A   Haze
4:31 PM 48.2 °F - 46.4 °F 93% 29.77 in 5.0 mi WNW 5.8 mph - N/A   Light Drizzle
4:50 PM 48.2 °F - 46.4 °F 93% 29.77 in 3.7 mi WNW 5.8 mph - N/A   Light Drizzle
5:27 PM 46.4 °F 41.1 °F 44.6 °F 93% 29.77 in 6.2 mi NW 11.5 mph - N/A   Overcast
5:50 PM 46.4 °F 40.7 °F 42.8 °F 87% 29.77 in 6.2 mi NW 12.7 mph - N/A   Overcast
6:00 PM 47 °F - 42 °F 77% 29.79 in 19 mi NW 12.7 mph - - Rain Light Drizzle
6:50 PM 46.4 °F 42.4 °F 41.0 °F 81% 29.77 in 6.2 mi NW 8.1 mph - N/A Rain Light Rain
7:50 PM 46.4 °F 42.9 °F 41.0 °F 81% 29.77 in 6.2 mi NW 6.9 mph - N/A   Overcast
8:50 PM 44.6 °F 41.4 °F 41.0 °F 87% 29.80 in 6.2 mi NW 5.8 mph - N/A   Mostly Cloudy
9:00 PM 45 °F - 42 °F 83% 29.81 in 12 mi NW 5.8 mph - -   Partly Cloudy
9:50 PM 42.8 °F 38.0 °F 41.0 °F 93% 29.80 in 6.2 mi NNW 8.1 mph - N/A   Partly Cloudy
10:50 PM 44.6 °F 40.2 °F 41.0 °F 87% 29.80 in 6.2 mi NW 8.1 mph - N/A   Mostly Cloudy
11:50 PM 42.8 °F 37.0 °F 37.4 °F 81% 29.80 in 6.2 mi NNW 10.4 mph - N/A   Mostly Cloudy